Middlebury State AP, Middlebu, VT

12:09 AM EST on November 19, 2019 (GMT -0500)
Middlebury State AP, Middlebu

Weather History for K6B0 - September, 2019

Change the Weather History Date:

Tuesday, September 24, 2019

  Actual Average (KRUT) Record (KRUT)
Temperature  
Mean Temperature 58 °F -  
Max Temperature 66 °F 64 °F 86 °F (2010)
Min Temperature 52 °F 44 °F 25 °F (1963)
Degree Days  
Heating Degree Days 6    
Growing Degree Days 8 (Base 50)    
Moisture  
Dew Point 56 °F    
Average Humidity 90    
Maximum Humidity 99    
Minimum Humidity 71    
Precipitation  
Precipitation 0.07 in - - ()
Sea Level Pressure  
Sea Level Pressure 29.76 in    
Wind  
Wind Speed 3 mph ()    
Max Wind Speed 15 mph    
Max Gust Speed 22 mph    
Visibility 9.5 miles    
Events Rain    
Averages and records for this station are not official NWS values.
T = Trace of Precipitation, MM = Missing Value Source: Averaged Metar Reports

Daily Weather History Graph

Daily Weather History Graph

Search for Another Location

Airport or City:

Astronomy

Sep. 24, 2019 Rise Set
Actual Time 6:41 AM EDT 6:46 PM EDT
Civil Twilight 6:12 AM EDT 7:15 PM EDT
Nautical Twilight 5:39 AM EDT 7:48 PM EDT
Astronomical Twilight 5:04 AM EDT 8:23 PM EDT
Moon 1:10 AM EDT (9/24) 4:41 PM EDT (9/24)
Length of Visible Light 13h 02m
Length of Day
12h 04m
Waning Crescent, 23% of the Moon is Illuminated
Sep 24
Waning Crescent
Sep 28
New
Oct 5
First Quarter
Oct 13
Full
Oct 21
Last Quarter

Hourly Weather History & Observations

Time (EDT) Temp. Dew Point Humidity Pressure Visibility Wind Dir Wind Speed Gust Speed Precip Events Conditions
12:37 AM 64.4 °F 62.2 °F 93% 29.69 in 10.0 mi NNW 3.5 mph - N/A   Overcast
12:55 AM 63.7 °F 62.1 °F 94% 29.69 in 10.0 mi Calm Calm - N/A   Overcast
1:15 AM 63.3 °F 62.4 °F 97% 29.69 in 10.0 mi Calm Calm - N/A   Overcast
1:16 AM 63.3 °F 62.4 °F 97% 29.69 in 10.0 mi Calm Calm - N/A   Overcast
1:35 AM 63.0 °F 62.4 °F 98% 29.69 in 10.0 mi Calm Calm - N/A   Overcast
1:36 AM 63.0 °F 62.2 °F 97% 29.69 in 10.0 mi Calm Calm - N/A   Overcast
2:17 AM 63.0 °F 62.2 °F 97% 29.69 in 10.0 mi Calm Calm - 0.01 in Rain Light Rain
2:36 AM 62.6 °F 61.7 °F 97% 29.67 in 7.0 mi South 3.5 mph - 0.03 in Rain Light Rain
2:55 AM 62.6 °F 61.9 °F 97% 29.67 in 10.0 mi Calm Calm - 0.03 in   Light Drizzle
2:56 AM 62.6 °F 61.9 °F 97% 29.67 in 10.0 mi Calm Calm - 0.03 in   Light Drizzle
3:15 AM 62.6 °F 61.7 °F 97% 29.67 in 10.0 mi Calm Calm - N/A   Overcast
3:20 AM 62.6 °F 61.7 °F 97% 29.67 in 10.0 mi Calm Calm - N/A   Overcast
3:37 AM 62.6 °F 61.3 °F 96% 29.68 in 10.0 mi South 3.5 mph - N/A   Overcast
3:55 AM 61.7 °F 60.4 °F 96% 29.68 in 10.0 mi South 4.6 mph - N/A   Mostly Cloudy
4:15 AM 60.6 °F 58.5 °F 93% 29.68 in 10.0 mi SE 3.5 mph - N/A   Mostly Cloudy
4:16 AM 60.6 °F 58.3 °F 92% 29.68 in 10.0 mi Calm Calm - N/A   Mostly Cloudy
4:35 AM 59.2 °F 57.9 °F 96% 29.68 in 10.0 mi Calm Calm - N/A   Mostly Cloudy
4:36 AM 59.0 °F 57.7 °F 96% 29.68 in 10.0 mi Calm Calm - N/A   Mostly Cloudy
4:59 AM 58.3 °F 57.6 °F 97% 29.68 in 10.0 mi SSE 3.5 mph - N/A   Mostly Cloudy
5:17 AM 58.6 °F 57.7 °F 97% 29.68 in 10.0 mi South 3.5 mph - N/A   Mostly Cloudy
5:35 AM 58.5 °F 57.2 °F 96% 29.69 in 10.0 mi SE 3.5 mph - N/A   Mostly Cloudy
5:36 AM 58.5 °F 57.2 °F 96% 29.69 in 10.0 mi Calm Calm - N/A   Mostly Cloudy
5:55 AM 57.6 °F 56.5 °F 96% 29.69 in 3.0 mi Calm Calm - N/A   Scattered Clouds
5:56 AM 57.4 °F 56.5 °F 97% 29.69 in 2.5 mi Calm Calm - N/A   Scattered Clouds
6:15 AM 57.2 °F 56.3 °F 97% 29.70 in 10.0 mi Calm Calm - N/A   Mostly Cloudy
6:19 AM 57.2 °F 56.3 °F 97% 29.70 in 10.0 mi ESE 3.5 mph - N/A   Mostly Cloudy
6:37 AM 56.1 °F 55.4 °F 97% 29.71 in 7.0 mi Calm Calm - N/A   Scattered Clouds
6:55 AM 55.8 °F 55.4 °F 99% 29.72 in 0.8 mi Calm Calm - N/A   Mostly Cloudy
7:15 AM 56.3 °F 55.6 °F 97% 29.72 in 10.0 mi Calm Calm - N/A   Mostly Cloudy
7:16 AM 56.3 °F 55.6 °F 97% 29.72 in 10.0 mi Calm Calm - N/A   Mostly Cloudy
7:35 AM 57.0 °F 56.1 °F 97% 29.72 in 10.0 mi Calm Calm - N/A   Overcast
7:36 AM 57.2 °F 56.3 °F 97% 29.72 in 10.0 mi Calm Calm - N/A   Overcast
7:58 AM 57.4 °F 56.3 °F 96% 29.73 in 10.0 mi Calm Calm - N/A   Overcast
8:16 AM 58.1 °F 56.5 °F 94% 29.73 in 10.0 mi SSE 5.8 mph - N/A   Overcast
8:35 AM 59.4 °F 56.7 °F 91% 29.74 in 10.0 mi SSE 4.6 mph - N/A   Mostly Cloudy
8:36 AM 59.4 °F 56.5 °F 90% 29.74 in 10.0 mi SSE 4.6 mph - N/A   Mostly Cloudy
8:55 AM 59.9 °F 56.5 °F 88% 29.74 in 10.0 mi SSE 3.5 mph - N/A   Overcast
8:56 AM 59.9 °F 56.5 °F 88% 29.74 in 10.0 mi SSE 3.5 mph - N/A   Overcast
9:15 AM 59.9 °F 56.7 °F 89% 29.74 in 10.0 mi SSE 3.5 mph - N/A Rain Rain
9:20 AM 59.9 °F 56.7 °F 89% 29.74 in 10.0 mi Calm Calm - N/A   Light Drizzle
9:37 AM 59.9 °F 57.2 °F 91% 29.75 in 10.0 mi SSE 3.5 mph - N/A   Drizzle
9:55 AM 59.9 °F 57.0 °F 90% 29.75 in 10.0 mi SSE 3.5 mph - N/A   Light Drizzle
10:15 AM 59.7 °F 57.6 °F 93% 29.75 in 7.0 mi South 3.5 mph - 0.01 in Rain Rain
10:16 AM 59.7 °F 57.6 °F 93% 29.75 in 7.0 mi SSE 3.5 mph - 0.01 in   Drizzle
10:35 AM 60.4 °F 57.9 °F 91% 29.74 in 10.0 mi South 3.5 mph - 0.01 in   Overcast
10:36 AM 60.6 °F 57.9 °F 91% 29.74 in 10.0 mi SSE 3.5 mph - 0.01 in   Overcast
10:58 AM 61.9 °F 58.3 °F 88% 29.74 in 10.0 mi South 3.5 mph - 0.01 in Rain Light Rain
11:16 AM 63.0 °F 58.5 °F 85% 29.74 in 10.0 mi South 3.5 mph - N/A   Overcast
11:36 AM 64.9 °F 58.5 °F 79% 29.73 in 10.0 mi South 6.9 mph - N/A   Mostly Cloudy
11:55 AM 65.3 °F 58.3 °F 78% 29.73 in 10.0 mi South 6.9 mph - N/A   Scattered Clouds
12:15 PM 62.8 °F 57.2 °F 82% 29.74 in 4.0 mi North 8.1 mph 17.3 mph 0.03 in Rain Heavy Rain
12:20 PM 60.1 °F 57.2 °F 90% 29.74 in 4.0 mi North 4.6 mph 17.3 mph 0.03 in Rain Light Rain
12:38 PM 59.9 °F 57.0 °F 90% 29.74 in 10.0 mi North 3.5 mph - 0.03 in   Overcast
12:56 PM 63.0 °F 57.9 °F 84% 29.73 in 10.0 mi Calm Calm - 0.03 in   Mostly Cloudy
1:15 PM 64.0 °F 55.8 °F 74% 29.73 in 10.0 mi North 4.6 mph - N/A   Scattered Clouds
1:16 PM 63.9 °F 55.8 °F 75% 29.73 in 10.0 mi Calm Calm - N/A   Scattered Clouds
1:35 PM 61.9 °F 56.3 °F 82% 29.73 in 10.0 mi North 12.7 mph 19.6 mph N/A   Overcast
1:39 PM 61.5 °F 56.5 °F 83% 29.73 in 10.0 mi North 10.4 mph 19.6 mph N/A   Overcast
1:57 PM 62.6 °F 56.1 °F 79% 29.74 in 10.0 mi North 13.8 mph 19.6 mph N/A   Mostly Cloudy
2:16 PM 63.1 °F 55.9 °F 77% 29.74 in 10.0 mi North 13.8 mph 19.6 mph N/A   Overcast
2:35 PM 63.0 °F 55.6 °F 77% 29.74 in 10.0 mi North 13.8 mph 20.7 mph N/A   Mostly Cloudy
2:36 PM 63.0 °F 55.0 °F 75% 29.74 in 10.0 mi North 13.8 mph 20.7 mph N/A   Mostly Cloudy
2:55 PM 62.8 °F 53.8 °F 72% 29.75 in 10.0 mi North 10.4 mph - N/A   Overcast
3:00 PM 63.1 °F 53.8 °F 71% 29.75 in 10.0 mi North 12.7 mph 21.9 mph N/A   Overcast
3:17 PM 61.5 °F 52.7 °F 73% 29.76 in 10.0 mi NNW 11.5 mph 20.7 mph N/A   Mostly Cloudy
3:35 PM 60.8 °F 53.4 °F 77% 29.77 in 10.0 mi North 12.7 mph - N/A   Overcast
3:55 PM 58.3 °F 53.8 °F 85% 29.78 in 10.0 mi North 15.0 mph 18.4 mph N/A   Overcast
3:56 PM 58.1 °F 53.6 °F 85% 29.78 in 10.0 mi North 12.7 mph 18.4 mph N/A   Overcast
4:15 PM 58.1 °F 52.5 °F 82% 29.78 in 10.0 mi North 13.8 mph 18.4 mph N/A   Overcast
4:39 PM 58.5 °F 51.8 °F 79% 29.79 in 10.0 mi North 12.7 mph 18.4 mph N/A   Overcast
4:56 PM 58.3 °F 51.6 °F 78% 29.80 in 10.0 mi NNW 6.9 mph - N/A   Overcast
5:16 PM 58.1 °F 52.2 °F 81% 29.81 in 10.0 mi North 8.1 mph - N/A   Overcast
5:35 PM 57.6 °F 51.8 °F 81% 29.81 in 10.0 mi North 8.1 mph - N/A   Overcast
5:36 PM 57.6 °F 51.8 °F 81% 29.81 in 10.0 mi North 9.2 mph - N/A   Overcast
5:55 PM 57.2 °F 51.3 °F 81% 29.81 in 10.0 mi North 5.8 mph - N/A   Overcast
5:59 PM 56.8 °F 51.3 °F 82% 29.81 in 10.0 mi North 5.8 mph - N/A   Overcast
6:17 PM 56.8 °F 51.3 °F 82% 29.82 in 10.0 mi North 4.6 mph - N/A   Overcast
6:36 PM 56.7 °F 51.1 °F 82% 29.82 in 10.0 mi Calm Calm - N/A   Overcast
6:55 PM 55.9 °F 51.8 °F 86% 29.82 in 10.0 mi Calm Calm - N/A   Overcast
6:56 PM 55.9 °F 51.8 °F 86% 29.83 in 10.0 mi Calm Calm - N/A   Overcast
7:15 PM 54.9 °F 52.0 °F 90% 29.83 in 10.0 mi Calm Calm - N/A   Overcast
7:19 PM 54.5 °F 51.8 °F 91% 29.83 in 10.0 mi Calm Calm - N/A   Overcast
7:38 PM 54.1 °F 52.3 °F 94% 29.84 in 10.0 mi Calm Calm - N/A   Overcast
7:56 PM 53.1 °F 51.3 °F 94% 29.84 in 10.0 mi Calm Calm - N/A   Overcast
8:15 PM 53.2 °F 52.0 °F 95% 29.85 in 10.0 mi Calm Calm - N/A   Overcast
8:35 PM 53.6 °F 52.0 °F 94% 29.85 in 10.0 mi Calm Calm - N/A   Overcast
8:36 PM 53.6 °F 52.0 °F 94% 29.85 in 10.0 mi Calm Calm - N/A   Overcast
8:58 PM 54.0 °F 52.3 °F 94% 29.86 in 10.0 mi Calm Calm - N/A   Overcast
9:16 PM 53.6 °F 52.3 °F 95% 29.86 in 10.0 mi Calm Calm - N/A   Overcast
9:35 PM 53.8 °F 52.5 °F 95% 29.86 in 10.0 mi Calm Calm - N/A   Overcast
9:36 PM 53.8 °F 52.5 °F 95% 29.86 in 10.0 mi Calm Calm - N/A   Overcast
9:55 PM 53.6 °F 52.3 °F 95% 29.86 in 10.0 mi Calm Calm - N/A   Overcast
9:56 PM 53.6 °F 52.3 °F 95% 29.86 in 10.0 mi Calm Calm - N/A   Overcast
10:18 PM 52.9 °F 51.8 °F 96% 29.86 in 10.0 mi Calm Calm - N/A   Overcast
10:35 PM 52.7 °F 51.8 °F 97% 29.86 in 10.0 mi Calm Calm - N/A   Overcast
10:55 PM 52.9 °F 52.2 °F 97% 29.86 in 10.0 mi Calm Calm - N/A   Overcast
10:56 PM 52.9 °F 52.2 °F 97% 29.86 in 10.0 mi Calm Calm - N/A   Overcast
11:15 PM 52.9 °F 52.2 °F 97% 29.86 in 10.0 mi Calm Calm - N/A   Overcast
11:16 PM 52.9 °F 52.2 °F 97% 29.86 in 10.0 mi Calm Calm - N/A   Overcast
11:38 PM 53.1 °F 52.2 °F 97% 29.85 in 10.0 mi Calm Calm - N/A   Overcast
11:56 PM 53.2 °F 52.3 °F 97% 29.85 in 10.0 mi Calm Calm - N/A   Overcast